GW4199 Weather Reports


Display with metric or nautical units.
time (UTC)temp
F
wind
direction
speed
MPH
gust
MPH
rain 1hr
in
rain 24hr
in
rain mn
in
humidity
%
barometer
mb
20260906115456 77 30 4.0 6.0 0.00 0.00 0.00 85 1010.8
20260906114953 77 25 3.0 6.0 0.00 0.00 0.00 86 1010.7
20260906114455 77 15 4.0 6.0 0.00 0.00 0.00 86 1010.6
20260906113958 76 23 4.0 5.0 0.00 0.00 0.00 87 1010.7
20260906113455 76 22 3.0 4.0 0.00 0.00 0.00 87 1010.5
20260906112956 76 33 3.0 5.0 0.00 0.00 0.00 88 1010.6
20260906112454 76 34 4.0 5.0 0.00 0.00 0.00 88 1010.6
20260906111958 76 36 3.0 5.0 0.00 0.00 0.00 87 1010.5
20260906111456 76 49 3.0 7.0 0.00 0.00 0.00 88 1010.4
20260906110955 76 44 4.0 8.0 0.00 0.00 0.00 88 1010.4
20260906110454 76 15 5.0 8.0 0.00 0.00 0.00 89 1010.4
20260906105954 76 27 5.0 8.0 0.00 0.00 0.00 90 1010.3
20260906105456 76 6 5.0 8.0 0.00 0.00 0.00 91 1010.2
20260906104954 76 338 4.0 5.0 0.00 0.00 0.00 92 1010.1
20260906104454 76 351 2.0 3.0 0.00 0.00 0.00 92 1010.1
20260906103954 76 48 2.0 3.0 0.00 0.00 0.00 92 1010.1
20260906103454 76 37 2.0 5.0 0.00 0.00 0.00 92 1010.0
20260906102955 76 28 3.0 5.0 0.00 0.00 0.00 92 1010.0
20260906102454 76 43 3.0 5.0 0.00 0.00 0.00 92 1010.0
20260906101957 76 30 4.0 5.0 0.00 0.00 0.00 91 1010.0
20260906101457 76 17 3.0 5.0 0.00 0.00 0.00 91 1009.9
20260906100956 76 14 4.0 5.0 0.00 0.00 0.00 91 1009.9
20260906100456 76 19 3.0 7.0 0.00 0.00 0.00 91 1009.9
20260906095957 77 9 4.0 7.0 0.00 0.00 0.00 90 1009.8
20260906095455 77 357 5.0 8.0 0.00 0.00 0.00 90 1009.7
20260906094954 77 355 6.0 8.0 0.00 0.00 0.00 89 1009.7
20260906094455 77 360 5.0 7.0 0.00 0.00 0.00 89 1009.7
20260906093954 77 347 3.0 5.0 0.00 0.00 0.00 89 1009.6
20260906093455 77 334 3.0 4.0 0.00 0.00 0.00 89 1009.5
20260906092955 77 340 3.0 5.0 0.00 0.00 0.00 89 1009.5
20260906092457 77 359 3.0 7.0 0.00 0.00 0.00 89 1009.4
20260906091955 77 18 4.0 7.0 0.00 0.00 0.00 88 1009.4
20260906091455 77 6 5.0 7.0 0.00 0.00 0.00 88 1009.5
20260906090955 77 351 5.0 7.0 0.00 0.00 0.00 88 1009.6
20260906090455 77 11 4.0 6.0 0.00 0.00 0.00 88 1009.4
20260906085956 77 328 4.0 6.0 0.00 0.00 0.00 87 1009.3
20260906085455 78 325 6.0 6.0 0.00 0.00 0.00 88 1009.2
20260906084955 77 327 5.0 6.0 0.00 0.00 0.00 87 1009.3
20260906084457 77 4 4.0 7.0 0.00 0.00 0.00 88 1009.4
20260906083955 78 4 4.0 8.0 0.00 0.00 0.00 87 1009.4
20260906083457 78 330 5.0 9.0 0.00 0.00 0.00 87 1009.3
20260906082955 78 334 7.0 9.0 0.00 0.00 0.00 88 1009.4
20260906082453 78 330 6.0 8.0 0.00 0.00 0.00 88 1009.3
20260906081956 78 11 5.0 8.0 0.00 0.00 0.00 88 1009.3
20260906081455 78 15 5.0 8.0 0.00 0.00 0.00 88 1009.3
20260906080955 78 356 5.0 6.0 0.00 0.00 0.00 88 1009.4
20260906080456 77 20 3.0 9.0 0.00 0.00 0.00 87 1009.4
20260906075955 77 6 6.0 11.0 0.00 0.00 0.00 87 1009.5
20260906075455 78 18 8.0 11.0 0.00 0.00 0.00 87 1009.6
20260906074955 78 32 6.0 9.0 0.00 0.00 0.00 87 1009.6
20260906074458 78 53 7.0 9.0 0.00 0.00 0.00 87 1009.4
20260906073957 79 30 6.0 8.0 0.00 0.00 0.00 86 1009.5
20260906073455 79 25 4.0 7.0 0.00 0.00 0.00 86 1009.4
20260906072957 79 342 4.0 9.0 0.00 0.00 0.00 86 1009.4
20260906072456 79 343 6.0 9.0 0.00 0.00 0.00 85 1009.4
20260906071956 80 323 8.0 9.0 0.00 0.00 0.00 87 1009.5
20260906071456 80 333 6.0 7.0 0.00 0.00 0.00 88 1009.6
20260906070954 80 319 6.0 7.0 0.00 0.00 0.00 86 1009.6
20260906070455 80 324 5.0 6.0 0.00 0.00 0.00 86 1009.7
20260906065955 81 329 5.0 6.0 0.00 0.00 0.00 88 1009.9
20260906065454 80 356 2.0 3.0 0.00 0.00 0.00 89 1010.0
20260906064957 80 25 1.0 2.0 0.00 0.00 0.00 90 1010.0
20260906064456 80 27 1.0 2.0 0.00 0.00 0.00 89 1010.1
20260906063954 80 27 1.0 3.0 0.00 0.00 0.00 89 1010.1
20260906063455 80 27 3.0 3.0 0.00 0.00 0.00 89 1010.1
20260906062956 80 28 2.0 4.0 0.00 0.00 0.00 89 1010.1
20260906062455 80 27 2.0 4.0 0.00 0.00 0.00 90 1010.1
20260906061956 80 17 2.0 4.0 0.00 0.00 0.00 91 1010.2
20260906061457 80 31 3.0 4.0 0.00 0.00 0.00 92 1010.3
20260906060957 80 49 2.0 4.0 0.00 0.00 0.00 92 1010.3
20260906060457 80 50 3.0 4.0 0.00 0.00 0.00 92 1010.3
20260906060000 80 58 2.0 3.0 0.00 0.00 0.00 93 1010.2
20260906055457 80 58 2.0 3.0 0.00 0.00 0.00 93 1010.2
20260906054954 80 56 1.0 4.0 0.00 0.00 0.00 93 1010.2
20260906054455 80 48 1.0 4.0 0.00 0.00 0.00 93 1010.2
20260906053958 81 48 3.0 4.0 0.00 0.00 0.00 93 1010.3
20260906053455 81 64 2.0 3.0 0.00 0.00 0.00 93 1010.4
20260906052958 81 76 2.0 5.0 0.00 0.00 0.00 93 1010.3
20260906052456 81 56 4.0 5.0 0.00 0.00 0.00 93 1010.4
20260906051956 82 50 2.0 3.0 0.00 0.00 0.00 93 1010.3
20260906051456 82 27 2.0 4.0 0.00 0.00 0.00 93 1010.4
20260906050956 82 27 2.0 4.0 0.00 0.00 0.00 92 1010.4
20260906050456 82 15 2.0 5.0 0.00 0.00 0.00 92 1010.4
20260906045959 83 10 2.0 5.0 0.00 0.00 0.00 92 1010.3
20260906045456 83 302 3.0 5.0 0.00 0.00 0.00 91 1010.4
20260906044956 83 303 4.0 5.0 0.00 0.00 0.00 91 1010.4
20260906044458 83 306 2.0 4.0 0.00 0.00 0.00 91 1010.6
20260906043957 83 298 3.0 4.0 0.00 0.00 0.00 90 1010.7
20260906043455 83 310 2.0 4.0 0.00 0.00 0.00 90 1010.8
20260906042957 83 321 2.0 3.0 0.00 0.00 0.00 91 1010.9
20260906042456 83 11 1.0 4.0 0.00 0.00 0.00 91 1010.9
20260906041955 83 351 2.0 4.0 0.00 0.00 0.00 91 1010.9
20260906041457 83 321 2.0 3.0 0.00 0.00 0.00 91 1011.0
20260906040958 83 349 2.0 4.0 0.00 0.00 0.00 91 1010.9
20260906040456 83 288 2.0 5.0 0.00 0.00 0.00 91 1011.0
20260906035957 83 270 3.0 5.0 0.00 0.00 0.00 91 1011.0
20260906035456 83 293 2.0 3.0 0.00 0.00 0.00 91 1011.0
20260906034956 83 286 1.0 3.0 0.00 0.00 0.00 91 1010.9
20260906034500 83 285 2.0 5.0 0.00 0.00 0.00 91 1010.8
20260906034000 83 281 3.0 5.0 0.00 0.00 0.00 91 1010.8
20260906033459 83 283 4.0 6.0 0.00 0.00 0.00 91 1010.7
20260906032958 83 275 2.0 6.0 0.00 0.00 0.00 91 1010.6
20260906032456 83 280 3.0 9.0 0.00 0.00 0.00 91 1010.7
20260906031959 83 282 6.0 9.0 0.00 0.00 0.00 91 1010.8
20260906031455 83 260 5.0 7.0 0.00 0.00 0.00 91 1010.8
20260906030955 83 269 6.0 7.0 0.00 0.00 0.00 91 1010.8
20260906030458 83 262 4.0 6.0 0.00 0.00 0.00 91 1010.7
20260906025958 83 246 3.0 6.0 0.00 0.00 0.00 91 1010.8
20260906025457 83 278 3.0 8.0 0.00 0.00 0.00 91 1010.8
20260906024956 83 257 5.0 10.0 0.00 0.00 0.00 91 1010.7
20260906024457 83 266 4.0 11.0 0.00 0.00 0.00 91 1010.6
20260906023957 83 257 6.0 13.0 0.00 0.00 0.00 91 1010.4
20260906023457 83 273 8.0 13.0 0.00 0.00 0.00 91 1010.2
20260906022958 83 257 11.0 13.0 0.00 0.00 0.00 90 1010.0
20260906022458 83 244 10.0 13.0 0.00 0.00 0.00 90 1009.6
20260906021958 83 224 11.0 13.0 0.00 0.00 0.00 90 1009.5
20260906021500 83 224 7.0 9.0 0.00 0.00 0.00 90 1009.9
20260906020958 83 270 3.0 7.0 0.00 0.00 0.00 90 1010.2
20260906020458 83 303 6.0 7.0 0.00 0.00 0.00 90 1010.1
20260906020000 83 267 2.0 7.0 0.00 0.00 0.00 90 1009.9
20260906015455 83 248 6.0 7.0 0.00 0.00 0.00 90 1010.0
20260906014956 83 279 5.0 13.0 0.00 0.00 0.00 90 1009.7
20260906014457 83 250 7.0 14.0 0.00 0.00 0.00 90 1009.4
20260906013955 83 233 8.0 15.0 0.00 0.00 0.00 90 1009.1
20260906013456 83 217 12.0 15.0 0.00 0.00 0.00 90 1008.9
20260906012958 83 219 12.0 14.0 0.00 0.00 0.00 90 1009.1
20260906012456 83 214 7.0 9.0 0.00 0.00 0.00 90 1009.5
20260906011956 83 252 7.0 12.0 0.00 0.00 0.00 90 1009.9
20260906011458 83 219 7.0 13.0 0.00 0.00 0.00 89 1010.0
20260906010958 83 242 9.0 13.0 0.00 0.00 0.00 89 1010.1
20260906010500 83 262 9.0 12.0 0.00 0.00 0.00 89 1010.2
20260906005957 83 258 8.0 12.0 0.00 0.00 0.00 89 1010.2
20260906005458 83 247 9.0 13.0 0.00 0.00 0.00 89 1010.1
20260906004958 83 245 9.0 13.0 0.00 0.00 0.00 89 1010.0
20260906004500 83 245 9.0 13.0 0.00 0.00 0.00 89 1010.1
20260906003955 83 264 7.0 12.0 0.00 0.00 0.00 89 1010.3
20260906003455 83 240 8.0 12.0 0.00 0.00 0.00 89 1010.3
20260906002958 83 242 8.0 12.0 0.00 0.00 0.00 89 1010.3
20260906002457 83 243 8.0 12.0 0.00 0.00 0.00 89 1010.3
20260906001956 83 252 8.0 13.0 0.00 0.00 0.00 88 1010.6
20260906001458 83 251 9.0 13.0 0.00 0.00 0.00 88 1010.7
20260906000957 83 238 8.0 15.0 0.00 0.00 0.00 88 1010.6
20260906000457 83 250 9.0 15.0 0.00 0.00 0.00 88 1010.7
20260905235958 83 239 9.0 13.0 0.00 0.00 0.00 87 1010.8
20260905235458 83 235 10.0 13.0 0.00 0.00 0.00 87 1010.8
20260905234957 83 235 9.0 14.0 0.00 0.00 0.00 88 1010.7
20260905234458 83 237 10.0 16.0 0.00 0.00 0.00 88 1010.7
20260905233958 83 233 12.0 16.0 0.00 0.00 0.00 87 1010.8
20260905233458 83 238 11.0 15.0 0.00 0.00 0.00 88 1010.8
20260905232959 83 229 12.0 16.0 0.00 0.00 0.00 88 1010.8
20260905232458 83 257 11.0 16.0 0.00 0.00 0.00 88 1010.7
20260905231956 83 239 11.0 17.0 0.00 0.00 0.00 88 1010.7
20260905231459 84 236 12.0 17.0 0.00 0.00 0.00 88 1010.6
20260905230957 84 231 12.0 17.0 0.00 0.00 0.00 88 1010.5
20260905230456 84 215 10.0 17.0 0.00 0.00 0.00 88 1010.7
20260905225957 84 233 12.0 17.0 0.00 0.00 0.00 87 1010.5
20260905225457 84 250 13.0 17.0 0.00 0.00 0.00 86 1010.4
20260905224958 85 224 14.0 17.0 0.00 0.00 0.00 86 1010.4
20260905224458 85 243 13.0 17.0 0.00 0.00 0.00 85 1010.4
20260905223958 85 228 13.0 18.0 0.00 0.00 0.00 86 1010.4
20260905223457 85 231 12.0 21.0 0.00 0.00 0.00 86 1010.3
20260905222959 85 219 15.0 21.0 0.00 0.00 0.00 85 1010.2
20260905222501 85 234 15.0 19.0 0.00 0.00 0.00 85 1010.1
20260905221958 85 223 16.0 19.0 0.00 0.00 0.00 85 1010.2
20260905221501 85 245 13.0 18.0 0.00 0.00 0.00 85 1010.1
20260905220958 85 224 14.0 18.0 0.00 0.00 0.00 84 1010.2
20260905220458 86 236 13.0 17.0 0.00 0.00 0.00 84 1010.2
20260905215958 86 222 11.0 16.0 0.00 0.00 0.00 84 1010.3
20260905215458 86 243 13.0 17.0 0.00 0.00 0.00 84 1010.3
20260905214958 86 217 12.0 17.0 0.00 0.00 0.00 84 1010.2
20260905214459 85 221 12.0 18.0 0.00 0.00 0.00 84 1010.1
20260905213958 85 227 15.0 18.0 0.00 0.00 0.00 84 1010.2
20260905213458 85 219 14.0 18.0 0.00 0.00 0.00 85 1010.2
20260905213000 85 227 15.0 19.0 0.00 0.00 0.00 84 1010.3
20260905212458 85 246 12.0 19.0 0.00 0.00 0.00 84 1010.3
20260905211957 85 231 15.0 19.0 0.00 0.00 0.00 84 1010.2
20260905211502 85 236 14.0 21.0 0.00 0.00 0.00 84 1010.0
20260905210958 85 227 16.0 21.0 0.00 0.00 0.00 85 1010.0
20260905210457 85 212 17.0 21.0 0.00 0.00 0.00 85 1009.9
20260905210000 85 221 13.0 19.0 0.00 0.00 0.00 86 1010.0
20260905205459 85 225 15.0 18.0 0.00 0.00 0.00 84 1010.0
20260905205000 85 211 15.0 18.0 0.00 0.00 0.00 85 1010.0
20260905204458 85 212 15.0 19.0 0.00 0.00 0.00 84 1009.8
20260905203958 85 229 13.0 19.0 0.00 0.00 0.00 85 1009.8
20260905203457 85 207 14.0 19.0 0.00 0.00 0.00 86 1009.7
20260905202957 85 231 14.0 18.0 0.00 0.00 0.00 85 1009.8
20260905202457 85 226 14.0 18.0 0.00 0.00 0.00 84 1009.8
20260905201958 85 219 14.0 16.0 0.00 0.00 0.00 84 1009.7
20260905201458 85 219 13.0 16.0 0.00 0.00 0.00 84 1009.7
20260905200958 85 220 11.0 16.0 0.00 0.00 0.00 85 1009.8
20260905200501 85 229 13.0 16.0 0.00 0.00 0.00 84 1009.8
20260905195959 85 210 12.0 16.0 0.00 0.00 0.00 85 1009.9
20260905195458 85 236 14.0 17.0 0.00 0.00 0.00 85 1010.0
20260905194958 85 219 14.0 18.0 0.00 0.00 0.00 85 1010.1
20260905194459 85 227 13.0 18.0 0.00 0.00 0.00 86 1010.1
20260905193959 85 211 14.0 17.0 0.00 0.00 0.00 85 1010.1
20260905193501 85 225 13.0 17.0 0.00 0.00 0.00 84 1010.1
20260905193001 85 224 13.0 17.0 0.00 0.00 0.00 84 1010.2
20260905192457 85 222 13.0 17.0 0.00 0.00 0.00 84 1010.3
20260905191956 85 225 13.0 15.0 0.00 0.00 0.00 84 1010.4
20260905191459 85 232 12.0 15.0 0.00 0.00 0.00 84 1010.5
20260905191000 85 234 11.0 16.0 0.00 0.00 0.00 84 1010.6
20260905190457 85 235 11.0 16.0 0.00 0.00 0.00 82 1010.6
20260905185959 85 217 12.0 16.0 0.00 0.00 0.00 83 1010.8
20260905185458 85 229 11.0 15.0 0.00 0.00 0.00 82 1010.8
20260905184959 85 219 13.0 15.0 0.00 0.00 0.00 83 1010.9
20260905184500 85 223 12.0 15.0 0.00 0.00 0.00 83 1011.0
20260905183959 85 212 13.0 15.0 0.00 0.00 0.00 82 1011.2
20260905183500 85 218 10.0 15.0 0.00 0.00 0.00 84 1011.3
20260905183000 85 214 12.0 17.0 0.00 0.00 0.00 83 1011.4
20260905182459 85 230 11.0 17.0 0.00 0.00 0.00 83 1011.4
20260905182000 85 219 12.0 14.0 0.00 0.00 0.00 84 1011.4
20260905181459 85 225 12.0 14.0 0.00 0.00 0.00 84 1011.4
20260905180959 85 240 10.0 14.0 0.00 0.00 0.00 84 1011.5
20260905180457 85 245 11.0 14.0 0.00 0.00 0.00 84 1011.6
20260905175958 85 223 10.0 14.0 0.00 0.00 0.00 84 1011.5
20260905175457 85 218 10.0 15.0 0.00 0.00 0.00 84 1011.5
20260905174957 85 233 11.0 15.0 0.00 0.00 0.00 84 1011.5
20260905174458 85 213 12.0 14.0 0.00 0.00 0.00 84 1011.6
20260905173958 85 220 12.0 14.0 0.00 0.00 0.00 84 1011.6
20260905173457 85 229 11.0 15.0 0.00 0.00 0.00 83 1011.8
20260905172959 85 207 10.0 15.0 0.00 0.00 0.00 85 1011.9
20260905172459 85 225 11.0 14.0 0.00 0.00 0.00 83 1011.9
20260905171959 85 210 12.0 17.0 0.00 0.00 0.00 84 1011.9
20260905171500 85 203 10.0 17.0 0.00 0.00 0.00 86 1011.9
20260905171000 85 215 12.0 15.0 0.00 0.00 0.00 84 1012.0
20260905170459 85 219 10.0 13.0 0.00 0.00 0.00 85 1012.0
20260905170000 85 210 10.0 14.0 0.00 0.00 0.00 85 1012.1
20260905165500 85 221 11.0 14.0 0.00 0.00 0.00 85 1012.2
20260905165000 85 210 11.0 13.0 0.00 0.00 0.00 85 1012.3
20260905164457 85 198 10.0 13.0 0.00 0.00 0.00 86 1012.3
20260905164001 85 200 11.0 13.0 0.00 0.00 0.00 86 1012.4
20260905163458 85 209 11.0 13.0 0.00 0.00 0.00 86 1012.5
20260905162959 85 201 10.0 12.0 0.00 0.00 0.00 85 1012.6
20260905162501 85 204 10.0 12.0 0.00 0.00 0.00 85 1012.8
20260905161959 85 181 9.0 10.0 0.00 0.00 0.00 84 1012.9
20260905161500 86 206 7.0 10.0 0.00 0.00 0.00 83 1012.9
20260905161001 86 210 7.0 9.0 0.00 0.00 0.00 81 1013.0
20260905160458 86 221 6.0 9.0 0.00 0.00 0.00 81 1013.1
20260905160002 87 202 4.0 6.0 0.00 0.00 0.00 79 1013.1
20260905155502 86 217 0.0 6.0 0.00 0.00 0.00 77 1013.2
20260905155002 86 299 4.0 6.0 0.00 0.00 0.00 77 1013.2
20260905154500 86 295 1.0 6.0 0.00 0.00 0.00 77 1013.2
20260905154002 86 319 2.0 6.0 0.00 0.00 0.00 78 1013.3
20260905153501 86 259 0.0 7.0 0.00 0.00 0.00 78 1013.3
20260905153000 86 315 3.0 9.0 0.00 0.00 0.00 78 1013.4
20260905152457 85 319 6.0 10.0 0.00 0.00 0.00 77 1013.3
20260905152000 85 318 6.0 10.0 0.00 0.00 0.00 80 1013.4
20260905151500 85 267 5.0 8.0 0.00 0.00 0.00 80 1013.3
20260905150959 85 295 2.0 7.0 0.00 0.00 0.00 79 1013.4
20260905150459 85 294 5.0 7.0 0.00 0.00 0.00 80 1013.5
20260905150000 85 296 5.0 8.0 0.00 0.00 0.00 82 1013.4
20260905145500 85 289 3.0 8.0 0.00 0.00 0.00 81 1013.4
20260905144959 85 276 2.0 8.0 0.00 0.00 0.00 82 1013.4
20260905144500 85 305 5.0 8.0 0.00 0.00 0.00 82 1013.4
20260905144000 84 281 5.0 8.0 0.00 0.00 0.00 83 1013.5
20260905143500 84 281 4.0 9.0 0.00 0.00 0.00 83 1013.5
20260905143000 84 294 6.0 9.0 0.00 0.00 0.00 83 1013.5
20260905142459 84 282 4.0 8.0 0.00 0.00 0.00 84 1013.5
20260905142000 84 251 7.0 8.0 0.00 0.00 0.00 84 1013.5
20260905141502 84 230 4.0 7.0 0.00 0.00 0.00 85 1013.5
20260905140958 83 260 4.0 7.0 0.00 0.00 0.00 85 1013.4
20260905140459 83 297 5.0 7.0 0.00 0.00 0.00 86 1013.4
20260905140001 83 288 3.0 8.0 0.00 0.00 0.00 86 1013.5
20260905135458 83 289 4.0 8.0 0.00 0.00 0.00 86 1013.6
20260905134959 83 300 3.0 7.0 0.00 0.00 0.00 87 1013.6
20260905134500 82 306 6.0 9.0 0.00 0.00 0.00 88 1013.7
20260905134001 82 297 3.0 9.0 0.00 0.00 0.00 88 1013.7
20260905133459 82 285 3.0 6.0 0.00 0.00 0.00 88 1013.7
20260905132959 82 290 3.0 6.0 0.00 0.00 0.00 89 1013.7
20260905132459 82 335 3.0 6.0 0.00 0.00 0.00 89 1013.7
20260905132000 82 301 3.0 8.0 0.00 0.00 0.00 90 1013.8
20260905131501 82 299 5.0 8.0 0.00 0.00 0.00 91 1013.8
20260905131000 81 301 4.0 7.0 0.00 0.00 0.00 91 1013.8
20260905130502 81 302 4.0 7.0 0.00 0.00 0.00 91 1013.8
20260905130001 81 310 4.0 6.0 0.00 0.00 0.00 92 1013.7
20260905125501 81 308 5.0 6.0 0.00 0.00 0.00 92 1013.7
20260905124959 81 286 4.0 5.0 0.00 0.00 0.00 92 1013.8
20260905124500 81 304 4.0 5.0 0.00 0.00 0.00 93 1013.7
20260905123958 80 297 4.0 7.0 0.00 0.00 0.00 92 1013.6
20260905123500 80 312 4.0 7.0 0.00 0.00 0.00 92 1013.6
20260905123000 80 298 4.0 6.0 0.00 0.00 0.00 93 1013.5
20260905122500 80 303 4.0 6.0 0.00 0.00 0.00 93 1013.5
20260905121959 80 309 5.0 6.0 0.00 0.00 0.00 93 1013.5
20260905121500 80 318 4.0 6.0 0.00 0.00 0.00 93 1013.5
20260905121002 80 304 4.0 5.0 0.00 0.00 0.00 94 1013.5
20260905120501 80 316 3.0 5.0 0.00 0.00 0.00 94 1013.5
20260905120001 80 312 4.0 5.0 0.00 0.00 0.00 93 1013.4